Location: Mitty Observatory
(35.9148°N, 88.8847°W)
Time: 09:13:36
(UTC-05:00)

Envisat - Visible Passes

Search period start: 18 March 2019 00:00
Search period end: 28 March 2019 00:00
Orbit: 764 x 766 km, 98.2° (Epoch: 18 March)

Date Brightness Start Highest point End Pass type
(mag) Time Alt. Az. Time Alt. Az. Time Alt. Az.
18 Mar 3.0 19:26:20 10° SSE 19:31:22 72° ENE 19:36:27 10° N visible
18 Mar 6.2 21:09:43 10° WSW 21:10:51 11° W 21:11:59 10° WNW visible
19 Mar 5.2 20:29:33 10° SSW 20:33:47 26° W 20:38:01 10° NW visible
20 Mar 3.6 19:51:52 10° S 19:56:53 63° W 20:01:56 10° NNW visible
21 Mar 5.9 20:56:50 10° SW 20:59:31 14° W 21:02:12 10° WNW visible
22 Mar 4.8 20:17:56 10° SSW 20:22:29 34° W 20:27:05 10° NNW visible
23 Mar 3.2 19:40:36 10° S 19:45:40 81° WSW 19:50:47 10° NNW visible
24 Mar 5.7 20:44:43 10° SW 20:48:12 19° W 20:51:42 10° NW visible
25 Mar 4.3 20:06:26 10° S 20:11:14 43° W 20:16:05 10° NNW visible
26 Mar 3.0 19:29:24 10° SSE 19:34:28 79° ENE 19:39:33 10° N visible
27 Mar 5.4 20:32:51 10° SSW 20:36:54 24° W 20:40:58 10° NW visible
